When you browse on this site, cookies collect data to enhance your experience and personalize the content and advertising you see.
Visit our Privacy Policy to learn more. By continuing to use the site, you agree to this use of cookies and data.
  • în România
  • Lista ţărilor
  • Pe 7 zile
  • Temperatura apei
  • Meteo pe hartă
  • Widget-uri
  • user-avatar
    Intrare

    Meteo pe oră la Borgarnes

    Astăzi, 25 August, Duminică

    Timp Temperatura Precipitaţii Vânt Presiune Umiditate
    00:00 +9°C° 0 mm 1 m/s 757 mmHg 95%
    01:00 +9°C° 0 mm 1 m/s 756 mmHg 95%
    02:00 +8°C° 0 mm 0 m/s 756 mmHg 96%
    03:00 +9°C° 0 mm 1 m/s 755 mmHg 95%
    04:00 +10°C° 0 mm 1 m/s 755 mmHg 95%
    05:00 +9°C° 0 mm 2 m/s 754 mmHg 95%
    06:00 +10°C° 0 mm 2 m/s 754 mmHg 89%
    07:00 +10°C° 0 mm 3 m/s 753 mmHg 84%
    08:00 +11°C° 0 mm 4 m/s 752 mmHg 78%
    09:00 +10°C° 0.2 mm 5 m/s 752 mmHg 76%
    10:00 +10°C° 0.2 mm 6 m/s 751 mmHg 74%
    11:00 +10°C° 0.2 mm 7 m/s 750 mmHg 72%
    12:00 +10°C° 0.6 mm 7 m/s 749 mmHg 75%
    13:00 +10°C° 0.6 mm 7 m/s 747 mmHg 77%
    14:00 +9°C° 0.6 mm 8 m/s 746 mmHg 79%
    15:00 +10°C° 0.6 mm 8 m/s 744 mmHg 79%
    16:00 +10°C° 0.6 mm 9 m/s 743 mmHg 79%
    17:00 +10°C° 0.6 mm 9 m/s 741 mmHg 78%
    18:00 +10°C° 0.5 mm 9 m/s 740 mmHg 80%
    19:00 +10°C° 0.5 mm 8 m/s 739 mmHg 82%
    20:00 +10°C° 0.5 mm 8 m/s 739 mmHg 83%
    21:00 +10°C° 0.8 mm 7 m/s 738 mmHg 87%
    22:00 +10°C° 0.8 mm 6 m/s 737 mmHg 90%
    23:00 +10°C° 0.8 mm 5 m/s 737 mmHg 93%

    Mâine, 26 August, Luni

    Timp Temperatura Precipitaţii Vânt Presiune Umiditate
    00:00 +10°C° 0.3 mm 5 m/s 736 mmHg 93%
    01:00 +9°C° 0.3 mm 6 m/s 736 mmHg 92%
    02:00 +9°C° 0.3 mm 6 m/s 735 mmHg 91%
    03:00 +9°C° 0.2 mm 6 m/s 734 mmHg 90%
    04:00 +8°C° 0.2 mm 6 m/s 734 mmHg 88%
    05:00 +8°C° 0.2 mm 6 m/s 733 mmHg 87%
    06:00 +9°C° 0.5 mm 6 m/s 733 mmHg 88%
    07:00 +9°C° 0.5 mm 5 m/s 733 mmHg 90%
    08:00 +9°C° 0.5 mm 5 m/s 732 mmHg 91%
    09:00 +10°C° 0.3 mm 7 m/s 733 mmHg 87%
    10:00 +11°C° 0.3 mm 8 m/s 733 mmHg 83%
    11:00 +11°C° 0.3 mm 9 m/s 733 mmHg 78%
    12:00 +12°C° 0.3 mm 10 m/s 734 mmHg 76%
    13:00 +12°C° 0.3 mm 10 m/s 734 mmHg 74%
    14:00 +12°C° 0.3 mm 11 m/s 734 mmHg 71%
    15:00 +12°C° 0 mm 10 m/s 735 mmHg 72%
    16:00 +12°C° 0 mm 9 m/s 735 mmHg 73%
    17:00 +12°C° 0 mm 8 m/s 735 mmHg 74%
    18:00 +11°C° 0.2 mm 7 m/s 736 mmHg 80%
    19:00 +10°C° 0.2 mm 6 m/s 737 mmHg 86%
    20:00 +9°C° 0.2 mm 5 m/s 737 mmHg 91%
    21:00 +8°C° 0.3 mm 4 m/s 738 mmHg 93%
    22:00 +9°C° 0.3 mm 3 m/s 738 mmHg 94%
    23:00 +9°C° 0.3 mm 2 m/s 739 mmHg 95%

    Poimâine, 27 August, Marţi

    Timp Temperatura Precipitaţii Vânt Presiune Umiditate
    00:00 +9°C° 0.3 mm 2 m/s 739 mmHg 95%
    01:00 +9°C° 0.3 mm 2 m/s 739 mmHg 96%
    02:00 +9°C° 0.3 mm 1 m/s 740 mmHg 97%
    03:00 +9°C° 0.6 mm 2 m/s 740 mmHg 97%
    04:00 +9°C° 0.6 mm 2 m/s 740 mmHg 96%
    05:00 +9°C° 0.6 mm 2 m/s 740 mmHg 96%
    06:00 +9°C° 1.1 mm 3 m/s 741 mmHg 95%
    07:00 +8°C° 1.1 mm 4 m/s 741 mmHg 95%
    08:00 +8°C° 1.1 mm 4 m/s 742 mmHg 94%
    09:00 +8°C° 0.2 mm 5 m/s 742 mmHg 90%
    10:00 +9°C° 0.2 mm 6 m/s 743 mmHg 86%
    11:00 +9°C° 0.2 mm 6 m/s 743 mmHg 82%
    12:00 +9°C° 0.2 mm 6 m/s 744 mmHg 82%
    13:00 +8°C° 0.2 mm 6 m/s 744 mmHg 82%
    14:00 +8°C° 0.2 mm 6 m/s 745 mmHg 82%
    15:00 +8°C° 0.2 mm 6 m/s 745 mmHg 83%
    16:00 +8°C° 0.2 mm 5 m/s 745 mmHg 84%
    17:00 +8°C° 0.2 mm 5 m/s 746 mmHg 85%
    18:00 +8°C° 0.2 mm 5 m/s 746 mmHg 87%
    19:00 +7°C° 0.2 mm 4 m/s 747 mmHg 89%
    20:00 +7°C° 0.2 mm 4 m/s 747 mmHg 90%
    21:00 +7°C° 0.4 mm 4 m/s 747 mmHg 91%
    22:00 +8°C° 0.4 mm 3 m/s 748 mmHg 92%
    23:00 +8°C° 0.4 mm 3 m/s 748 mmHg 93%

    28 August, Miercuri

    Timp Temperatura Precipitaţii Vânt Presiune Umiditate
    00:00 +8°C° 0.5 mm 3 m/s 748 mmHg 94%
    01:00 +8°C° 0.5 mm 3 m/s 748 mmHg 94%
    02:00 +8°C° 0.5 mm 3 m/s 749 mmHg 95%
    03:00 +8°C° 0.5 mm 3 m/s 749 mmHg 94%
    04:00 +8°C° 0.5 mm 2 m/s 749 mmHg 94%
    05:00 +8°C° 0.5 mm 2 m/s 750 mmHg 94%
    06:00 +8°C° 0.4 mm 2 m/s 750 mmHg 91%
    07:00 +8°C° 0.4 mm 2 m/s 750 mmHg 89%
    08:00 +9°C° 0.4 mm 1 m/s 751 mmHg 86%
    09:00 +10°C° 0.2 mm 1 m/s 751 mmHg 84%
    10:00 +10°C° 0.2 mm 1 m/s 751 mmHg 81%
    11:00 +10°C° 0.2 mm 1 m/s 751 mmHg 79%
    12:00 +11°C° 0.1 mm 1 m/s 751 mmHg 77%
    13:00 +11°C° 0.1 mm 1 m/s 751 mmHg 75%
    14:00 +11°C° 0.1 mm 1 m/s 751 mmHg 74%
    15:00 +10°C° 0.2 mm 2 m/s 751 mmHg 76%
    16:00 +10°C° 0.2 mm 2 m/s 751 mmHg 77%
    17:00 +10°C° 0.2 mm 2 m/s 751 mmHg 79%
    18:00 +9°C° 0 mm 2 m/s 751 mmHg 82%
    19:00 +8°C° 0 mm 3 m/s 751 mmHg 86%
    20:00 +7°C° 0 mm 3 m/s 751 mmHg 89%
    21:00 +5°C° 0 mm 3 m/s 751 mmHg 90%
    22:00 +5°C° 0 mm 3 m/s 751 mmHg 92%
    23:00 +4°C° 0 mm 3 m/s 751 mmHg 93%

    29 August, Joi

    Timp Temperatura Precipitaţii Vânt Presiune Umiditate
    00:00 +4°C° 0 mm 4 m/s 751 mmHg 93%
    01:00 +4°C° 0 mm 4 m/s 751 mmHg 93%
    02:00 +3°C° 0 mm 4 m/s 751 mmHg 94%
    03:00 +4°C° 0 mm 4 m/s 751 mmHg 94%
    04:00 +4°C° 0 mm 4 m/s 751 mmHg 94%
    05:00 +4°C° 0 mm 4 m/s 751 mmHg 94%
    06:00 +5°C° 0 mm 4 m/s 751 mmHg 91%
    07:00 +6°C° 0 mm 4 m/s 751 mmHg 88%
    08:00 +7°C° 0 mm 5 m/s 751 mmHg 86%
    09:00 +8°C° 0 mm 5 m/s 751 mmHg 82%
    10:00 +9°C° 0 mm 5 m/s 751 mmHg 78%
    11:00 +10°C° 0 mm 5 m/s 751 mmHg 75%
    12:00 +10°C° 0 mm 5 m/s 751 mmHg 75%
    13:00 +10°C° 0 mm 5 m/s 751 mmHg 75%
    14:00 +10°C° 0 mm 5 m/s 751 mmHg 75%
    15:00 +10°C° 0 mm 5 m/s 751 mmHg 75%
    16:00 +10°C° 0 mm 5 m/s 752 mmHg 75%
    17:00 +10°C° 0 mm 5 m/s 752 mmHg 74%
    18:00 +9°C° 0 mm 5 m/s 752 mmHg 79%
    19:00 +7°C° 0 mm 5 m/s 752 mmHg 83%
    20:00 +6°C° 0 mm 4 m/s 753 mmHg 88%
    21:00 +6°C° 0 mm 4 m/s 753 mmHg 89%
    22:00 +6°C° 0 mm 4 m/s 753 mmHg 90%
    23:00 +6°C° 0 mm 4 m/s 754 mmHg 91%

    30 August, Vineri

    Timp Temperatura Precipitaţii Vânt Presiune Umiditate
    00:00 +6°C° 0 mm 4 m/s 754 mmHg 91%
    01:00 +6°C° 0 mm 4 m/s 754 mmHg 90%
    02:00 +6°C° 0 mm 4 m/s 754 mmHg 89%
    03:00 +6°C° 0 mm 4 m/s 754 mmHg 88%
    04:00 +6°C° 0 mm 4 m/s 755 mmHg 88%
    05:00 +6°C° 0 mm 4 m/s 755 mmHg 87%
    06:00 +6°C° 0.1 mm 4 m/s 755 mmHg 86%
    07:00 +6°C° 0.1 mm 5 m/s 755 mmHg 85%
    08:00 +6°C° 0.1 mm 5 m/s 756 mmHg 84%
    09:00 +6°C° 0.1 mm 5 m/s 756 mmHg 81%
    10:00 +6°C° 0.1 mm 5 m/s 756 mmHg 78%
    11:00 +7°C° 0.1 mm 5 m/s 757 mmHg 76%
    12:00 +7°C° 0 mm 5 m/s 757 mmHg 75%
    13:00 +7°C° 0 mm 5 m/s 757 mmHg 74%
    14:00 +7°C° 0 mm 5 m/s 757 mmHg 73%
    15:00 +7°C° 0 mm 5 m/s 757 mmHg 73%
    16:00 +7°C° 0 mm 6 m/s 757 mmHg 72%
    17:00 +7°C° 0 mm 6 m/s 758 mmHg 72%
    18:00 +5°C° 0 mm 6 m/s 758 mmHg 72%
    19:00 +4°C° 0 mm 6 m/s 758 mmHg 72%
    20:00 +4°C° 0 mm 6 m/s 759 mmHg 72%
    21:00 +3°C° 0 mm 5 m/s 759 mmHg 74%
    22:00 +2°C° 0 mm 5 m/s 759 mmHg 77%
    23:00 +1°C° 0 mm 5 m/s 759 mmHg 80%
    Arată mai mult